Regional Weather Roundup
Issued by NWS

Home | Current Version | Previous Version | Graphics & Text | Print | Product List | Glossary On
Versions: 1 2 3 4 5 6 7 8 9 10 11 12 13 14 15 16 17 18 19 20 21 22 23 24 25 26 27 28 29 30 31 32 33 34 35 36 37 38 39 40 41 42 43 44 45 46 47 48 49 50
000
ASUS43 KMKX 280610
RWRWI

WISCONSIN REGIONAL WEATHER ROUNDUP
NATIONAL WEATHER SERVICE MILWAUKEE/SULLIVAN WI
1200 AM CST WED JAN 28 2015

NOTE: "FAIR" INDICATES FEW OR NO CLOUDS BELOW 12,000 FEET WITH NO
SIGNIFICANT WEATHER AND/OR OBSTRUCTIONS TO VISIBILITY.

WIZ001-002-006>008-014>016-023>028-280700-
NORTHWEST WISCONSIN

CITY           SKY/WX    TMP DP  RH WIND       PRES   REMARKS
SUPERIOR ARPT  CLOUDY    29  24  79 S6        30.12F WCI  23
6HR MIN TEMP:  28; 6HR MAX TEMP:  29;

ASHLAND        CLOUDY    28  21  75 S8        30.14F WCI  20
6HR MIN TEMP:  28; 6HR MAX TEMP:  29;

HAYWARD        CLOUDY    25  20  81 S7        30.12F WCI  17
6HR MIN TEMP:  25; 6HR MAX TEMP:  27;

SIREN          PTCLDY    24  19  81 S5        30.12F WCI  19
6HR MIN TEMP:  24; 6HR MAX TEMP:  30;

CUMBERLAND     CLOUDY    23  19  86 SE7       30.12F WCI  15
RICE LAKE      MOCLDY    23  20  88 SE5       30.16S WCI  17
6HR MIN TEMP:  23; 6HR MAX TEMP:  28;

CHETEK         MOCLDY    24  20  87 E5        30.15S WCI  18
6HR MIN TEMP:  23; 6HR MAX TEMP:  27;

LADYSMITH      CLOUDY    26  22  87 SE6       30.16F WCI  19
6HR MIN TEMP:  26; 6HR MAX TEMP:  27;

EAU CLAIRE     CLOUDY    26  20  77 SE7       30.16F WCI  18
6HR MIN TEMP:  26; 6HR MAX TEMP:  28;

MENOMONIE      CLOUDY    27  21  80 SE7       30.15F WCI  19
6HR MIN TEMP:  22; 6HR MAX TEMP:  29;

NEW RICHMOND   CLOUDY    27  23  83 S9        30.14R WCI  18
6HR MIN TEMP:  27; 6HR MAX TEMP:  29;

OSCEOLA        CLOUDY    29  25  85 S8        30.17R WCI  21
6HR MIN TEMP:  28; 6HR MAX TEMP:  30;

$$

WIZ003>005-009-010-017-018-280700-
NORTH CENTRAL WISCONSIN

CITY           SKY/WX    TMP DP  RH WIND       PRES   REMARKS
MANITOWISH WTR CLOUDY    22  20  91 S6        30.13F WCI  15
6HR MIN TEMP:  22; 6HR MAX TEMP:  23;

ARBOR VITAE    CLOUDY    23  19  86 S6        30.14F WCI  16
6HR MIN TEMP:  23; 6HR MAX TEMP:  24;

WOODRUFF       CLOUDY    23  19  86 S6        30.14F WCI  16
6HR MIN TEMP:  23; 6HR MAX TEMP:  24;

RHINELANDER    CLOUDY    22  18  85 SW5       30.16S WCI  16
6HR MIN TEMP:  22; 6HR MAX TEMP:  23;

EAGLE RIVER    CLOUDY    22  17  83 SW5       30.15S WCI  15
6HR MIN TEMP:  22; 6HR MAX TEMP:  23;

LAND O LAKES   CLOUDY    22  19  88 CALM      30.14F
6HR MIN TEMP:  22; 6HR MAX TEMP:  24;

PHILLIPS       CLOUDY    23  20  91 S7        30.14S WCI  14
6HR MIN TEMP:  23; 6HR MAX TEMP:  24;

TOMAHAWK       CLOUDY    22  19  87 CALM      30.16F
6HR MIN TEMP:  22; 6HR MAX TEMP:  23;

MEDFORD        CLOUDY    23  21  93 S6        30.15F FOG     WCI  16
MERRILL        CLOUDY    24  21  89 S3        30.18F
6HR MIN TEMP:  24; 6HR MAX TEMP:  25;

$$

WIZ029-030-035-036-043>047-280700-
CENTRAL WISCONSIN

CITY           SKY/WX    TMP DP  RH WIND       PRES   REMARKS
WAUSAU         CLOUDY    23  19  85 SE5       30.18S WCI  17
6HR MIN TEMP:  23; 6HR MAX TEMP:  24;

MOSINEE        CLOUDY    23  23 100 S6        30.20S WCI  16
MARSHFIELD     CLOUDY    25  22  88 S7        30.18S FOG     WCI  17
6HR MIN TEMP:  24; 6HR MAX TEMP:  25;

STEVENS POINT  CLOUDY    22  18  83 SE5       30.21S WCI  16
6HR MIN TEMP:  22; 6HR MAX TEMP:  23;

WAUPACA        CLOUDY    26  19  77 CALM      30.24S
6HR MIN TEMP:  25; 6HR MAX TEMP:  28;

WAUTOMA        CLOUDY    23  21  92 CALM      30.23S
6HR MIN TEMP:  23; 6HR MAX TEMP:  25;

WISC RAPIDS    CLOUDY    24  19  81 S3        30.22S
6HR MIN TEMP:  24; 6HR MAX TEMP:  25;

CAMP DOUGLAS   CLOUDY    26  26 100 SE5       30.20F WCI  20
6HR MIN TEMP:  26; 6HR MAX TEMP:  26;

$$

WIZ011>013-019>022-031-037>040-048>050-280700-
NORTHEAST WISCONSIN

CITY           SKY/WX    TMP DP  RH WIND       PRES   REMARKS
ANTIGO         CLOUDY    21  18  90 S6        30.18S WCI  13
6HR MIN TEMP:  21; 6HR MAX TEMP:  22;

SHAWANO        CLOUDY    25  18  74 CALM      30.24S
6HR MIN TEMP:  25; 6HR MAX TEMP:  27;

OCONTO         MOCLDY    11   9  93 CALM      30.26R
6HR MIN TEMP:   9; 6HR MAX TEMP:  19;

STURGEON BAY   CLOUDY    16  10  79 CALM      30.26S
6HR MIN TEMP:  12; 6HR MAX TEMP:  19;

GREEN BAY      MOCLDY    15  13  91 CALM      30.26R
6HR MIN TEMP:  11; 6HR MAX TEMP:  23;

MANITOWOC      CLOUDY    24  18  77 W5        30.25R WCI  18
6HR MIN TEMP:  23; 6HR MAX TEMP:  26;

APPLETON       CLOUDY    23  18  80 S3        30.24S
CLINTONVILLE   CLOUDY    23  18  80 CALM      30.23S
OSHKOSH        CLOUDY    23  16  74 S3        30.23S
6HR MIN TEMP:  20; 6HR MAX TEMP:  26;

$$

WIZ032>034-041-042-053>061-280700-
SOUTHWEST WISCONSIN

CITY           SKY/WX    TMP DP  RH WIND       PRES   REMARKS
LA CROSSE      CLOUDY    29  21  72 S12       30.20F WCI  19
6HR MIN TEMP:  29; 6HR MAX TEMP:  30;

SPARTA         CLOUDY    27  22  82 S6        30.22S WCI  20
6HR MIN TEMP:  26; 6HR MAX TEMP:  27;

VIROQUA        CLOUDY    25  22  91 S13       30.18S WCI  13
6HR MIN TEMP:  25; 6HR MAX TEMP:  25;

BOSCOBEL       CLOUDY    29  22  75 S3        30.23S
6HR MIN TEMP:  28; 6HR MAX TEMP:  29;

PRAIRIE DU CHI CLOUDY    27  21  77 SE7       30.23R WCI  20
6HR MIN TEMP:  27; 6HR MAX TEMP:  29;

PLATTEVILLE    CLOUDY    27  24  89 SE10      30.21S WCI  17
6HR MIN TEMP:  27; 6HR MAX TEMP:  28;

$$

WIZ056-057-062-063-064-067-068-280700-
SOUTH CENTRAL WISCONSIN

CITY           SKY/WX    TMP DP  RH WIND       PRES   REMARKS
REEDSBURG      CLOUDY    26  24  93 CALM      30.21F FOG
6HR MIN TEMP:  26; 6HR MAX TEMP:  26;

BARABOO/DELLS  CLOUDY    25  23  91 SE3       30.21F FOG
6HR MIN TEMP:  25; 6HR MAX TEMP:  26;

LONE ROCK      CLOUDY    27  25  92 E3        30.24S FOG
6HR MIN TEMP:  27; 6HR MAX TEMP:  28;

MINERAL POINT  CLOUDY    28  27  93 S3        30.21R FOG
MADISON        CLOUDY    25  20  81 S6        30.23S WCI  18
6HR MIN TEMP:  24; 6HR MAX TEMP:  27;

MIDDLETON      CLOUDY    28  24  83 S5        30.22F WCI  23
6HR MIN TEMP:  28; 6HR MAX TEMP:  29;

WATERTOWN      CLOUDY    23  18  83 S3        30.24R
6HR MIN TEMP:  23; 6HR MAX TEMP:  28;

MONROE         CLOUDY    28  27  93 SE3       30.22R FOG
JANESVILLE     CLOUDY    28  21  74 S3        30.26R
$$

WIZ051-052-058>065-066-070>072-280700-
SOUTHEAST WISCONSIN

CITY           SKY/WX    TMP DP  RH WIND       PRES   REMARKS
MILWAUKEE      CLOUDY    27  17  66 CALM      30.25S
6HR MIN TEMP:  27; 6HR MAX TEMP:  28;

WAUKESHA       CLOUDY    21  18  86 CALM      30.25S
MILWAUKEE/TIMM CLOUDY    27  18  69 CALM      30.26S
RACINE         CLOUDY    27  19  72 W3        30.26F
6HR MIN TEMP:  24; 6HR MAX TEMP:  28;

BURLINGTON     CLOUDY    16  14  91 CALM      30.25F
6HR MIN TEMP:  11; 6HR MAX TEMP:  22;

KENOSHA        CLOUDY    22  18  85 SW3       30.25F
6HR MIN TEMP:  19; 6HR MAX TEMP:  25;

FOND DU LAC    CLOUDY    23  17  78 S5        30.24R WCI  17
6HR MIN TEMP:  22; 6HR MAX TEMP:  26;

SHEBOYGAN      CLOUDY    24  18  77 W5        30.24S WCI  18
6HR MIN TEMP:  24; 6HR MAX TEMP:  26;

WEST BEND      CLOUDY    23  18  80 CALM      30.23S
JUNEAU         MOCLDY    24  19  80 SE5       30.24S WCI  18
6HR MIN TEMP:  24; 6HR MAX TEMP:  26;

$$

LSZ147-162-280700-
LAKE SUPERIOR

STATION/POSITION TIME  TEMP    WIND        PRES    WAVE
                       AIR SEA DIR/SP/G            HT/PER
                 (UTC) (F)     (DEG/KT/KT) (MB)    (FT/S)
DEVILS ISLAND    0600   29     170/  7/ 10 1021.4F
PORT WING        0540   29     170/  5/  9 1020.3F
SAXON HARBOR     0500   28        CALM     1021.7S
$$

LMZ867-665-643>646-280700-
LAKE MICHIGAN

STATION/POSITION TIME  TEMP    WIND        PRES    WAVE
                       AIR SEA DIR/SP/G            HT/PER


USA.gov is the U.S. government's official web portal to all federal, state and local government web resources and services.